User: anonymous   Login
Location: Vancouver
(49.2500°N, 123.1330°W)
Time: 07:02:33
(UTC-07:00)
Language:

Iridium 21 - Orbit

View from above orbital plane
View from above orbital plane
View from above satellite
View from above satellite

Ground track
Ground track

The orbit data is extracted from the following two-line orbital elements,

1 25778U 99032B   17263.91070460 +.00000165 +00000-0 +51963-4 0  9998
2 25778 086.4021 183.9742 0002210 085.6206 274.5242 14.34223203961756
Epoch (UTC): 20 September 2017 21:51:24
Eccentricity: 0.0002210
inclination: 86.4021°
perigee height: 776 km
apogee height: 779 km
right ascension of ascending node: 183.9742°
argument of perigee: 85.6206°
revolutions per day: 14.34223203
mean anomaly at epoch: 274.5242°
orbit number at epoch: 96175

The dashed part of the orbit path shows where the satellite is in the earth's shadow,  

DLR